Date String (YYYY-MM-DD hh:mm:ss) UTC,Instrument flags,Ambient pressure (hPa),Sample flow (lpm),Bypass flow (lpm),Sample temperature (°C),Ambient temperature (°C),ASC tube jacket temperature (°C),LED temperature (°C),Box temperature (°C),Sample RH (%),Span deviation,Mass concentration (μg/m³),Mass concentration (μg/m³),Mass concentration (μg/m³)
DateTimeUTC,F1_M11,P_M11,Q1_M11,Q2_M11,T1_M11,T2_M11,T3_M11,T4_M11,T5_M11,U1_M11,ZSPAN_M11,X0_M11,X2_M11,X1_M11
2021-08-26 00:00:00,,0830.3,5.00,0.00,29.4,28.2,00.0,38.2,31.2,30.1,0002.0,0023.73,0010.81,0008.89
2021-08-26 00:01:00,,0830.2,5.00,0.00,29.3,26.6,00.0,38.2,30.8,30.5,0002.2,0023.77,0010.79,0008.86
2021-08-26 00:02:00,,0830.2,4.99,0.00,29.1,25.8,00.0,38.2,30.5,30.3,0002.5,0022.99,0010.79,0008.79
2021-08-26 00:03:00,,0830.2,4.99,0.00,29.1,26.0,00.0,38.2,30.6,30.9,0002.8,0023.71,0010.75,0008.77
2021-08-26 00:04:00,,0830.2,5.00,0.00,29.0,26.5,00.0,38.2,30.7,31.0,0002.7,0023.06,0010.66,0008.77
2021-08-26 00:05:00,,0830.1,4.99,0.00,29.1,27.0,00.0,38.2,30.8,31.4,0002.7,0022.81,0010.65,0008.75
2021-08-26 00:06:00,,0830.2,5.00,0.00,29.1,27.4,00.0,38.2,31.0,31.1,0002.5,0024.32,0010.57,0008.73
2021-08-26 00:07:00,,0830.1,5.00,0.00,29.2,27.8,00.0,38.2,31.1,31.4,0002.5,0025.90,0010.58,0008.72
2021-08-26 00:08:00,,0830.1,5.00,0.00,29.2,28.1,00.0,38.2,31.2,32.0,0002.5,0025.80,0010.61,0008.71
2021-08-26 00:09:00,,0830.1,5.00,0.00,29.3,28.4,00.0,38.2,31.3,31.5,0002.4,0025.69,0010.63,0008.71
2021-08-26 00:10:00,,0830.1,4.99,0.00,29.3,27.5,00.0,38.2,31.0,31.5,0002.4,0026.76,0010.66,0008.70
2021-08-26 00:11:00,,0830.1,5.01,0.00,29.2,26.0,00.0,38.2,30.6,31.8,0002.2,0025.97,0010.62,0008.67
2021-08-26 00:12:00,,0830.1,5.00,0.00,29.1,25.7,00.0,38.2,30.5,31.7,0002.0,0025.71,0010.57,0008.64
2021-08-26 00:13:00,,0830.1,5.00,0.00,29.0,26.1,00.0,38.2,30.6,31.9,0001.8,0025.94,0010.43,0008.61
2021-08-26 00:14:00,,0830.1,4.99,0.00,29.0,26.6,00.0,38.1,30.7,32.3,0001.8,0025.36,0010.39,0008.59
2021-08-26 00:15:00,,0830.1,5.00,0.00,29.0,27.1,00.0,38.1,30.8,32.7,0002.0,0026.96,0010.41,0008.55
2021-08-26 00:16:00,,0830.1,5.00,0.00,29.1,27.5,00.0,38.1,31.0,32.8,0001.8,0027.16,0010.42,0008.54
2021-08-26 00:17:00,,0830.1,5.02,0.00,29.1,27.9,00.0,38.1,31.1,32.6,0001.5,0026.29,0010.42,0008.54
2021-08-26 00:18:00,,0830.1,4.99,0.00,29.2,28.1,00.0,38.2,31.2,32.3,0001.4,0025.07,0010.40,0008.51
2021-08-26 00:19:00,,0830.1,5.00,0.00,29.3,28.4,00.0,38.2,31.3,32.0,0001.2,0024.86,0010.42,0008.51
2021-08-26 00:20:00,,0830.1,4.99,0.00,29.3,28.6,00.0,38.2,31.4,31.9,0000.8,0024.28,0010.36,0008.49
2021-08-26 00:21:00,,0830.1,5.00,0.00,29.4,28.0,00.0,38.2,31.2,32.1,0000.8,0023.88,0010.30,0008.48
2021-08-26 00:22:00,,0830.1,5.01,0.00,29.3,26.3,00.0,38.2,30.7,32.5,0001.3,0024.40,0010.31,0008.48
2021-08-26 00:23:00,,0830.1,5.00,0.00,29.1,25.8,00.0,38.2,30.5,32.3,0001.4,0024.89,0010.35,0008.48
2021-08-26 00:24:00,,0830.1,4.99,0.00,29.1,26.1,00.0,38.2,30.6,32.7,0001.2,0024.59,0010.35,0008.49
2021-08-26 00:25:00,,0830.1,5.01,0.00,29.0,26.6,00.0,38.2,30.7,32.4,0000.9,0025.50,0010.34,0008.48
2021-08-26 00:26:00,,0830.1,4.99,0.00,29.1,27.1,00.0,38.2,30.9,32.5,0001.4,0024.82,0010.33,0008.48
2021-08-26 00:27:00,,0830.1,4.99,0.00,29.1,27.5,00.0,38.2,31.0,32.6,0001.7,0025.24,0010.35,0008.49
2021-08-26 00:28:00,,0830.1,5.00,0.00,29.2,27.9,00.0,38.2,31.1,32.7,0001.7,0025.10,0010.34,0008.47
2021-08-26 00:29:00,,0830.1,5.00,0.00,29.2,28.2,00.0,38.2,31.2,32.7,0001.6,0026.35,0010.32,0008.47
2021-08-26 00:30:00,,0830.1,5.01,0.00,29.3,28.4,00.0,38.2,31.3,32.8,0001.8,0026.77,0010.25,0008.47
2021-08-26 00:31:00,,0830.2,5.00,0.00,29.4,28.6,00.0,38.3,31.4,32.7,0002.1,0027.30,0010.32,0008.50
2021-08-26 00:32:00,,0830.1,5.01,0.00,29.4,27.4,00.0,38.3,31.1,32.8,0002.0,0028.18,0010.34,0008.49
2021-08-26 00:33:00,,0830.1,5.00,0.00,29.2,26.0,00.0,38.2,30.6,33.2,0001.8,0029.11,0010.37,0008.51
2021-08-26 00:34:00,,0830.1,4.99,0.00,29.1,25.9,00.0,38.2,30.5,33.3,0001.6,0029.43,0010.36,0008.53
2021-08-26 00:35:00,,0830.1,5.02,0.00,29.1,26.3,00.0,38.2,30.6,33.6,0001.8,0030.60,0010.40,0008.53
2021-08-26 00:36:00,,0830.1,4.99,0.00,29.1,26.8,00.0,38.2,30.8,33.5,0001.9,0029.94,0010.41,0008.53
2021-08-26 00:37:00,,0830.1,5.01,0.00,29.1,27.2,00.0,38.2,30.9,33.1,0001.8,0030.28,0010.43,0008.53
2021-08-26 00:38:00,,0830.1,4.98,0.00,29.1,27.6,00.0,38.2,31.0,33.4,0001.8,0029.81,0010.43,0008.52
2021-08-26 00:39:00,,0830.2,5.00,0.00,29.2,28.0,00.0,38.2,31.1,33.2,0002.1,0029.63,0010.52,0008.55
2021-08-26 00:40:00,,0830.1,5.01,0.00,29.3,28.2,00.0,38.2,31.2,33.2,0002.2,0029.10,0010.53,0008.57
2021-08-26 00:41:00,,0830.1,5.00,0.00,29.3,28.5,00.0,38.3,31.3,33.1,0002.2,0028.12,0010.56,0008.56
2021-08-26 00:42:00,,0830.1,5.01,0.00,29.4,28.7,00.0,38.3,31.4,32.8,0002.2,0028.07,0010.53,0008.53
2021-08-26 00:43:00,,0830.1,4.99,0.00,29.4,27.8,00.0,38.3,31.2,32.7,0002.2,0026.51,0010.44,0008.53
2021-08-26 00:44:00,,0830.1,5.01,0.00,29.3,26.2,00.0,38.3,30.7,32.9,0002.2,0025.73,0010.37,0008.50
2021-08-26 00:45:00,,0830.0,5.00,0.00,29.2,25.9,00.0,38.3,30.6,32.7,0002.4,0025.74,0010.34,0008.46
2021-08-26 00:46:00,,0830.1,4.98,0.00,29.1,26.2,00.0,38.2,30.7,33.0,0002.4,0024.29,0010.37,0008.45
2021-08-26 00:47:00,,0830.0,5.01,0.00,29.1,26.7,00.0,38.2,30.8,33.1,0002.4,0024.92,0010.37,0008.45
2021-08-26 00:48:00,,0830.1,4.99,0.00,29.1,27.2,00.0,38.2,30.9,32.9,0002.3,0024.50,0010.33,0008.44
2021-08-26 00:49:00,,0830.1,5.01,0.00,29.2,27.6,00.0,38.2,31.1,32.6,0002.0,0024.97,0010.29,0008.43
2021-08-26 00:50:00,,0830.1,4.98,0.00,29.2,27.9,00.0,38.2,31.2,32.6,0001.9,0024.57,0010.12,0008.38
2021-08-26 00:51:00,,0830.1,5.00,0.00,29.3,28.2,00.0,38.3,31.3,32.4,0001.9,0024.36,0010.06,0008.33
2021-08-26 00:52:00,,0830.1,5.01,0.00,29.4,28.5,00.0,38.3,31.4,32.4,0002.0,0024.23,0010.03,0008.31
2021-08-26 00:53:00,,0830.1,5.00,0.00,29.4,28.6,00.0,38.3,31.4,32.1,0002.0,0024.39,0010.02,0008.30
2021-08-26 00:54:00,,0830.1,4.99,0.00,29.4,27.2,00.0,38.3,30.9,32.2,0002.1,0024.25,0010.06,0008.30
2021-08-26 00:55:00,,0830.0,5.01,0.00,29.2,25.9,00.0,38.3,30.6,32.8,0002.4,0023.65,0010.08,0008.30
2021-08-26 00:56:00,,0830.0,5.00,0.00,29.1,25.9,00.0,38.3,30.6,32.9,0002.1,0024.03,0010.02,0008.29
2021-08-26 00:57:00,,0830.0,5.00,0.00,29.1,26.3,00.0,38.2,30.7,32.9,0002.0,0024.95,0009.97,0008.27
2021-08-26 00:58:00,,0830.0,4.99,0.00,29.1,26.8,00.0,38.2,30.8,32.9,0002.1,0024.57,0009.96,0008.25
2021-08-26 00:59:00,,0829.9,5.00,0.00,29.1,27.3,00.0,38.2,30.9,33.0,0002.2,0023.62,0009.95,0008.24
